TimeCST,TemperatureF,Dew PointF,Humidity,Sea Level PressureIn,VisibilityMPH,Wind Direction,Wind SpeedMPH,Gust SpeedMPH,PrecipitationIn,Events,Conditions,WindDirDegrees,DateUTC
12:53 AM,42.1,30.0,62,30.15,9.0,West,4.6,-,N/A,,Clear,280,2013-03-01 06:53:00
1:53 AM,39.9,30.0,68,30.14,10.0,West,4.6,-,N/A,,Clear,260,2013-03-01 07:53:00
2:53 AM,37.0,30.9,79,30.14,10.0,Calm,Calm,-,N/A,,Clear,0,2013-03-01 08:53:00
3:53 AM,35.1,30.9,85,30.14,10.0,Calm,Calm,-,N/A,,Clear,0,2013-03-01 09:53:00
4:53 AM,35.1,30.9,85,30.16,10.0,Calm,Calm,-,N/A,,Clear,0,2013-03-01 10:53:00
5:53 AM,34.0,30.0,85,30.17,10.0,Calm,Calm,-,N/A,,Clear,0,2013-03-01 11:53:00
6:53 AM,34.0,30.0,85,30.18,10.0,Calm,Calm,-,N/A,,Clear,0,2013-03-01 12:53:00
7:53 AM,39.0,33.1,79,30.21,10.0,WNW,3.5,-,N/A,,Clear,300,2013-03-01 13:53:00
8:53 AM,43.0,33.1,68,30.23,10.0,NNW,10.4,-,N/A,,Clear,330,2013-03-01 14:53:00
9:53 AM,46.9,33.1,59,30.22,10.0,NW,12.7,-,N/A,,Clear,310,2013-03-01 15:53:00
10:53 AM,48.0,32.0,54,30.22,10.0,West,9.2,17.3,N/A,,Clear,280,2013-03-01 16:53:00
11:53 AM,50.0,32.0,50,30.21,10.0,NW,18.4,28.8,N/A,,Clear,310,2013-03-01 17:53:00
12:53 PM,52.0,32.0,47,30.18,10.0,NW,15.0,20.7,N/A,,Clear,310,2013-03-01 18:53:00
1:53 PM,53.1,27.0,37,30.15,10.0,WNW,16.1,25.3,N/A,,Clear,300,2013-03-01 19:53:00
2:53 PM,55.0,28.9,37,30.14,10.0,NW,20.7,24.2,N/A,,Clear,320,2013-03-01 20:53:00
3:53 PM,55.9,28.0,34,30.13,10.0,WNW,16.1,23.0,N/A,,Clear,300,2013-03-01 21:53:00
4:53 PM,54.0,28.0,37,30.13,10.0,NW,15.0,24.2,N/A,,Clear,320,2013-03-01 22:53:00
5:53 PM,50.0,28.0,43,30.14,10.0,NNW,8.1,-,N/A,,Clear,340,2013-03-01 23:53:00
6:53 PM,48.9,28.9,46,30.16,10.0,NNW,4.6,-,N/A,,Mostly Cloudy,340,2013-03-02 00:53:00
8:53 PM,42.1,35.1,76,30.19,10.0,Calm,Calm,-,N/A,,Clear,0,2013-03-02 02:53:00
9:53 PM,39.9,32.0,73,30.19,10.0,Calm,Calm,-,N/A,,Clear,0,2013-03-02 03:53:00
10:53 PM,39.9,32.0,73,30.19,10.0,West,3.5,-,N/A,,Clear,260,2013-03-02 04:53:00
11:53 PM,42.1,30.9,65,30.18,10.0,West,4.6,-,N/A,,Partly Cloudy,280,2013-03-02 05:53:00